Weather History for Orange, MA

Change the Weather History Date:

Tuesday, January 14, 2014

  Actual Average Record
Temperature  
Mean Temperature 41 °F -  
Max Temperature 45 °F 27 °F 57 °F (2005)
Min Temperature 37 °F 9 °F -9 °F (2004)
Degree Days  
Heating Degree Days 24    
Moisture  
Dew Point 40 °F    
Average Humidity 94    
Maximum Humidity 100    
Minimum Humidity 73    
Precipitation  
Precipitation 0.56 in - - ()
Sea Level Pressure  
Sea Level Pressure 29.71 in    
Wind  
Wind Speed 5 mph (WSW)    
Max Wind Speed 13 mph    
Max Gust Speed -    
Visibility 4 miles    
Events Fog , Rain    
Averages and records for this station are not official NWS values.
T = Trace of Precipitation, MM = Missing Value Source: NWS Daily Summary

Daily Weather History Graph

Daily Weather History Graph

Search for Another Location

Airport:

Trip Planner

Search our weather history database for the weather conditions in past years. The results will help you decide how hot, cold, wet, or windy it might be!

Date:

Astronomy

Jan. 14, 2014 Rise Set
Actual Time 7:16 AM EST 4:40 PM EST
Civil Twilight 6:45 AM EST 5:11 PM EST
Nautical Twilight 6:10 AM EST 5:46 PM EST
Astronomical Twilight 5:36 AM EST 6:19 PM EST
Moon 3:43 PM EST (1/14) 5:48 AM EST (1/14)
Length of Visible Light 10h 25m
Length of Day
9h 23m
Waxing Gibbous, 98% of the Moon is Illuminated
Jan 14
Waxing Gibbous
Jan 15
Full
Jan 24
Last Quarter
Jan 30
New
Feb 6
First Quarter

Hourly Weather History & Observations

Time (EST) Temp. Windchill Dew Point Humidity Pressure Visibility Wind Dir Wind Speed Gust Speed Precip Events Conditions
12:52 AM 44.1 °F 39.5 °F 36.0 °F 73% 29.86 in 10.0 mi SSE 8.1 mph - N/A   Clear
1:52 AM 43.0 °F 38.2 °F 36.0 °F 76% 29.85 in 10.0 mi South 8.1 mph - N/A   Clear
2:52 AM 43.0 °F 37.7 °F 36.0 °F 76% 29.83 in 10.0 mi SSE 9.2 mph - N/A   Clear
3:52 AM 44.1 °F 39.5 °F 37.0 °F 76% 29.81 in 10.0 mi South 8.1 mph - N/A   Mostly Cloudy
4:52 AM 44.1 °F 40.1 °F 37.9 °F 79% 29.80 in 10.0 mi South 6.9 mph - N/A   Partly Cloudy
5:52 AM 44.1 °F 39.5 °F 37.9 °F 79% 29.80 in 10.0 mi South 8.1 mph - N/A   Mostly Cloudy
6:52 AM 44.1 °F 37.7 °F 39.0 °F 82% 29.81 in 10.0 mi South 12.7 mph - N/A   Mostly Cloudy
7:52 AM 45.0 °F 39.3 °F 39.0 °F 80% 29.81 in 10.0 mi South 11.5 mph - 0.00 in Rain Light Rain
8:52 AM 43.0 °F 38.2 °F 41.0 °F 93% 29.80 in 8.0 mi South 8.1 mph - 0.02 in Rain Light Rain
9:24 AM 43.0 °F 37.2 °F 41.0 °F 93% 29.79 in 8.0 mi South 10.4 mph - 0.00 in Rain Light Rain
9:52 AM 43.0 °F 38.8 °F 41.0 °F 93% 29.80 in 5.0 mi South 6.9 mph - 0.02 in Rain Light Rain
10:26 AM 43.0 °F 37.7 °F 42.1 °F 97% 29.79 in 5.0 mi South 9.2 mph - 0.02 in Rain Light Rain
10:52 AM 44.1 °F 39.5 °F 42.1 °F 93% 29.78 in 6.0 mi South 8.1 mph - 0.03 in Rain Light Rain
11:52 AM 43.0 °F 39.5 °F 42.1 °F 97% 29.76 in 4.0 mi South 5.8 mph - 0.03 in Rain Light Rain
12:52 PM 44.1 °F 42.5 °F 42.1 °F 93% 29.73 in 4.0 mi SSW 3.5 mph - 0.05 in Rain Light Rain
1:52 PM 44.1 °F - 43.0 °F 96% 29.71 in 3.0 mi Calm Calm - 0.06 in Rain Rain
1:56 PM 43.0 °F - 43.0 °F 100% 29.70 in 2.0 mi Calm Calm - 0.01 in Rain Rain
2:14 PM 43.0 °F - 42.1 °F 97% 29.69 in 3.0 mi Calm Calm - 0.03 in Rain Light Rain
2:19 PM 43.0 °F - 42.1 °F 97% 29.69 in 2.5 mi Calm Calm - 0.04 in Rain Rain
2:24 PM 43.0 °F - 42.1 °F 97% 29.68 in 1.2 mi Calm Calm - 0.05 in Rain Rain
2:37 PM 43.0 °F - 42.1 °F 97% 29.68 in 1.8 mi Calm Calm - 0.07 in Rain Light Rain
2:52 PM 42.1 °F 40.2 °F 41.0 °F 96% 29.69 in 1.8 mi SSW 3.5 mph - 0.09 in Rain Light Rain
2:59 PM 42.1 °F 40.2 °F 42.1 °F 100% 29.68 in 2.0 mi SSW 3.5 mph - 0.00 in Rain Light Rain
3:08 PM 43.0 °F - 42.1 °F 97% 29.67 in 4.0 mi Calm Calm - 0.01 in Rain Light Rain
3:16 PM 42.1 °F - 42.1 °F 100% 29.68 in 2.0 mi Calm Calm - 0.02 in Rain Light Rain
3:18 PM 42.1 °F - 42.1 °F 100% 29.67 in 1.2 mi Calm Calm - 0.02 in Rain Light Rain
3:20 PM 42.1 °F - 42.1 °F 100% 29.67 in 0.8 mi Calm Calm - 0.02 in Rain Light Rain
3:28 PM 42.1 °F - 42.1 °F 100% 29.67 in 0.5 mi Calm Calm - 0.03 in Fog , Rain Light Rain
3:34 PM 42.1 °F - 42.1 °F 100% 29.67 in 1.2 mi Calm Calm - 0.03 in Rain Light Rain
3:36 PM 42.1 °F - 42.1 °F 100% 29.68 in 1.5 mi Calm Calm - 0.03 in Rain Light Rain
3:41 PM 42.1 °F 40.2 °F 42.1 °F 100% 29.68 in 1.0 mi SSW 3.5 mph - 0.04 in Rain Light Rain
3:48 PM 42.8 °F - 41.0 °F 93% 29.67 in 0.5 mi Calm Calm - 0.04 in Fog , Rain Light Rain
3:52 PM 42.1 °F - 41.0 °F 96% 29.68 in 0.2 mi Calm Calm - 0.05 in Fog , Rain Light Rain
4:52 PM 41.0 °F - 39.9 °F 96% 29.68 in 0.5 mi Calm Calm - 0.06 in Fog , Rain Light Rain
5:14 PM 39.9 °F - 39.9 °F 100% 29.68 in 0.5 mi Calm Calm - 0.01 in Fog , Rain Light Rain
5:24 PM 41.0 °F 39.0 °F 41.0 °F 100% 29.67 in 1.0 mi NW 3.5 mph - 0.02 in Rain Light Rain
5:28 PM 41.0 °F 39.0 °F 39.9 °F 96% 29.67 in 1.5 mi NNW 3.5 mph - 0.03 in Rain Light Rain
5:33 PM 41.0 °F 39.0 °F 39.9 °F 96% 29.67 in 2.5 mi NNW 3.5 mph - 0.04 in Rain Light Rain
5:40 PM 42.1 °F 39.2 °F 41.0 °F 96% 29.67 in 5.0 mi NW 4.6 mph - 0.05 in Rain Light Rain
5:52 PM 42.1 °F 40.2 °F 41.0 °F 96% 29.68 in 6.0 mi NW 3.5 mph - 0.06 in Rain Light Rain
6:08 PM 41.0 °F 39.0 °F 39.9 °F 96% 29.65 in 1.5 mi NNW 3.5 mph - 0.01 in Rain Light Rain
6:11 PM 39.9 °F 37.8 °F 39.9 °F 100% 29.65 in 1.0 mi NNW 3.5 mph - 0.02 in Rain Light Rain
6:17 PM 41.0 °F 39.0 °F 39.9 °F 96% 29.65 in 1.5 mi NNW 3.5 mph - 0.02 in Rain Light Rain
6:21 PM 41.0 °F 39.0 °F 39.9 °F 96% 29.65 in 3.0 mi NNW 3.5 mph - 0.02 in Rain Light Rain
6:37 PM 39.9 °F - 39.9 °F 100% 29.66 in 1.8 mi Calm Calm - 0.04 in Rain Light Rain
6:40 PM 39.9 °F - 39.9 °F 100% 29.66 in 1.0 mi Calm Calm - 0.04 in Rain Light Rain
6:52 PM 39.9 °F - 39.9 °F 100% 29.68 in 1.0 mi Calm Calm - 0.05 in Rain Light Rain
7:07 PM 41.0 °F - 39.9 °F 96% 29.67 in 1.8 mi Calm Calm - 0.02 in Rain Light Rain
7:09 PM 41.0 °F - 39.9 °F 96% 29.67 in 3.0 mi Calm Calm - 0.02 in Rain Light Rain
7:52 PM 39.9 °F 36.7 °F 39.0 °F 97% 29.66 in 8.0 mi North 4.6 mph - 0.02 in Rain Light Rain
8:29 PM 39.0 °F - 39.0 °F 100% 29.66 in 1.8 mi Calm Calm - 0.01 in   Mostly Cloudy
8:31 PM 37.9 °F - 37.9 °F 100% 29.66 in 1.0 mi Calm Calm - 0.01 in   Mostly Cloudy
8:38 PM 39.0 °F - 37.9 °F 96% 29.66 in 0.5 mi Calm Calm - 0.01 in Fog Fog
8:48 PM 37.4 °F 33.8 °F 35.6 °F 93% 29.65 in 0.2 mi NW 4.6 mph - 0.01 in Fog Fog
8:49 PM 37.4 °F 33.8 °F 35.6 °F 93% 29.65 in 0.2 mi NW 4.6 mph - 0.01 in Fog Fog
8:52 PM 37.0 °F 32.4 °F 37.0 °F 100% 29.67 in 0.5 mi NW 5.8 mph - 0.01 in Fog Fog
8:58 PM 39.0 °F 34.8 °F 37.9 °F 96% 29.67 in 1.5 mi West 5.8 mph - N/A   Mostly Cloudy
9:00 PM 39.0 °F 35.7 °F 39.0 °F 100% 29.67 in 3.0 mi West 4.6 mph - N/A   Mostly Cloudy
9:52 PM 39.9 °F 37.8 °F 37.9 °F 93% 29.73 in 10.0 mi North 3.5 mph - 0.00 in Rain Light Rain
10:52 PM 39.9 °F 36.7 °F 39.0 °F 97% 29.77 in 10.0 mi West 4.6 mph - 0.01 in Rain Light Rain
11:13 PM 39.9 °F 36.7 °F 37.9 °F 93% 29.76 in 10.0 mi Variable 4.6 mph - 0.00 in   Overcast
11:50 PM 39.2 °F 32.0 °F 35.6 °F 87% 29.76 in 10.0 mi West 11.5 mph - 0.00 in   Scattered Clouds
11:52 PM 39.9 °F 33.9 °F 36.0 °F 86% 29.78 in 10.0 mi West 9.2 mph - 0.00 in   Partly Cloudy